User: anonymous   Login
Location: Bédeille
(43.0872°N, 1.1041°E)
Time: 10:37:56
(UTC+00:00)
Language:

Cosmos 2333 - Orbit

View from above orbital plane
View from above orbital plane
View from above satellite
View from above satellite

Ground track
Ground track

The orbit data is extracted from the following two-line orbital elements,

1 24297U 96051A   23156.42153748  .00000025  00000-0  38748-4 0  9997
2 24297  70.9043 147.3310 0023476 181.6993 178.4053 14.13471794379746
Epoch (UTC): 05 June 2023 10:07:00
Eccentricity: 0.0023476
inclination: 70.9043°
perigee height: 830 km
apogee height: 864 km
right ascension of ascending node: 147.3310°
argument of perigee: 181.6993°
revolutions per day: 14.13471794
mean anomaly at epoch: 178.4053°
orbit number at epoch: 37974

The dashed part of the orbit path shows where the satellite is in the earth's shadow,  

DLR